Location: Orlando
(28.5380°N, 81.3790°W)
Time: 14:25:32
(UTC-04:00)

Envisat - Visible Passes

Search period start: 23 March 2019 00:00
Search period end: 02 April 2019 00:00
Orbit: 764 x 766 km, 98.2° (Epoch: 22 March)

Date Brightness Start Highest point End Pass type
(mag) Time Alt. Az. Time Alt. Az. Time Alt. Az.
23 Mar 4.2 20:38:30 10° S 20:43:21 45° W 20:48:12 10° NNW visible
24 Mar 3.0 20:01:35 10° SSE 20:06:37 71° ENE 20:11:40 10° N visible
25 Mar 5.3 21:04:56 10° SSW 21:08:57 24° W 21:13:00 10° NW visible
26 Mar 3.6 20:27:07 10° S 20:32:07 60° W 20:37:08 10° NNW visible
27 Mar 6.0 21:32:45 10° WSW 21:34:39 12° W 21:36:32 10° WNW visible
28 Mar 4.9 20:53:15 10° SSW 20:57:41 31° W 21:02:10 10° NW visible
29 Mar 3.2 20:15:50 10° S 20:20:54 80° WSW 20:25:59 10° NNW visible
30 Mar 5.8 21:20:16 10° SW 21:23:21 16° W 21:26:27 10° WNW visible
31 Mar 4.4 20:41:42 10° S 20:46:27 41° W 20:51:13 10° NNW visible
01 Apr 3.0 20:04:39 10° SSE 20:09:42 79° ENE 20:14:47 10° N visible
